QZ668 WIDD-WIII

Flight info

Callsign QZ668
Flight time 0h 41m
Altitude 33000
Route ANITO1J ANITO B470 BUNIK DCT
Aircraft A320/M-SDE3FGHIRWY/LB1

Departure

Time 2026-04-20 13:53
Airport Hang Nadim International Airport (WIDD)

Arrival

Time 2026-04-20 14:35
Airport Soekarno-Hatta International Airport (WIII)
Time Latitude Longitude Altitude Speed Heading
2026-04-20 13:38 1.12105 104.11519 141 ft 0 kts 313°
2026-04-20 13:41 1.12105 104.11518 141 ft 0 kts 313°
2026-04-20 13:42 1.12106 104.11518 141 ft 0 kts 313°
2026-04-20 13:44 1.12106 104.11517 141 ft 0 kts 313°
2026-04-20 13:45 1.12107 104.11517 141 ft 0 kts 313°
2026-04-20 13:45 1.12102 104.11522 141 ft 2 kts 313°
2026-04-20 13:46 1.12091 104.11535 141 ft 3 kts 313°
2026-04-20 13:46 1.12077 104.11549 141 ft 3 kts 313°
2026-04-20 13:46 1.12063 104.11564 141 ft 3 kts 313°
2026-04-20 13:46 1.12049 104.11580 141 ft 3 kts 313°
2026-04-20 13:47 1.12035 104.11595 141 ft 3 kts 313°
2026-04-20 13:47 1.12021 104.11610 141 ft 3 kts 313°
2026-04-20 13:47 1.12007 104.11625 141 ft 3 kts 313°
2026-04-20 13:47 1.11997 104.11636 141 ft 0 kts 313°
2026-04-20 13:48 1.11998 104.11636 141 ft 0 kts 313°
2026-04-20 13:48 1.11998 104.11635 141 ft 0 kts 313°
2026-04-20 13:49 1.12002 104.11631 141 ft 1 kts 312°
2026-04-20 13:50 1.12006 104.11617 141 ft 4 kts 265°
2026-04-20 13:50 1.11972 104.11592 141 ft 9 kts 220°
2026-04-20 13:50 1.11910 104.11539 141 ft 14 kts 220°
2026-04-20 13:50 1.11823 104.11463 141 ft 19 kts 222°
2026-04-20 13:51 1.11713 104.11364 141 ft 23 kts 222°
2026-04-20 13:51 1.11584 104.11249 141 ft 25 kts 222°
2026-04-20 13:51 1.11485 104.11160 141 ft 14 kts 220°
2026-04-20 13:51 1.11445 104.11183 141 ft 7 kts 86°
2026-04-20 13:52 1.11448 104.11222 141 ft 6 kts 86°
2026-04-20 13:52 1.11451 104.11265 141 ft 7 kts 86°
2026-04-20 13:52 1.11457 104.11319 141 ft 10 kts 69°
2026-04-20 13:52 1.11520 104.11384 141 ft 22 kts 42°
2026-04-20 13:53 1.11803 104.11637 141 ft 87 kts 41°
2026-04-20 13:53 1.12406 104.12169 141 ft 141 kts 41°
2026-04-20 13:53 1.13252 104.12914 295 ft 174 kts 41°
2026-04-20 13:53 1.14162 104.13717 1049 ft 176 kts 41°
2026-04-20 13:54 1.15061 104.14540 1926 ft 178 kts 44°
2026-04-20 13:54 1.15653 104.15681 2410 ft 201 kts 83°
2026-04-20 13:54 1.15356 104.17097 3020 ft 223 kts 118°
2026-04-20 13:54 1.14240 104.18246 3628 ft 241 kts 149°
2026-04-20 13:55 1.12602 104.18717 4244 ft 256 kts 179°
2026-04-20 13:55 1.10871 104.18311 5145 ft 260 kts 207°
2026-04-20 13:55 1.09515 104.17120 6097 ft 264 kts 235°
2026-04-20 13:55 1.08860 104.15408 7071 ft 268 kts 263°
2026-04-20 13:56 1.09063 104.13559 7996 ft 272 kts 290°
2026-04-20 13:56 1.10098 104.11979 8874 ft 275 kts 316°
2026-04-20 13:56 1.11745 104.11023 9716 ft 279 kts 343°
2026-04-20 13:56 1.14288 104.11007 10601 ft 292 kts 15°
2026-04-20 13:57 1.18367 104.12275 11376 ft 329 kts 359°
2026-04-20 13:57 1.22539 104.10411 12762 ft 339 kts 313°
2026-04-20 13:57 1.24247 104.06102 14133 ft 346 kts 270°
2026-04-20 13:57 1.22476 104.01673 15421 ft 353 kts 227°
2026-04-20 13:58 1.15406 103.99705 17431 ft 361 kts 174°
2026-04-20 13:58 1.05269 104.00970 19690 ft 377 kts 172°
2026-04-20 13:58 0.97677 104.07543 21892 ft 388 kts 102°
2026-04-20 13:58 0.93312 104.17324 23799 ft 400 kts 135°
2026-04-20 13:59 0.83650 104.23133 25474 ft 411 kts 150°
2026-04-20 13:59 0.73553 104.28799 26884 ft 421 kts 150°
2026-04-20 13:59 0.63261 104.34628 28174 ft 430 kts 150°
2026-04-20 13:59 0.52720 104.40608 29299 ft 438 kts 150°
2026-04-20 14:00 0.42158 104.46606 30279 ft 444 kts 150°
2026-04-20 14:00 0.31366 104.52735 31203 ft 449 kts 150°
2026-04-20 14:00 0.20502 104.58904 32051 ft 446 kts 150°
2026-04-20 14:00 0.09719 104.65026 31998 ft 446 kts 150°
2026-04-20 14:01 -0.09994 104.76227 32000 ft 446 kts 150°
2026-04-20 14:01 -0.29603 104.87405 31999 ft 446 kts 148°
2026-04-20 14:02 -0.50076 105.01295 32000 ft 446 kts 146°
2026-04-20 14:02 -0.70670 105.15280 32000 ft 446 kts 146°
2026-04-20 14:03 -0.91138 105.29143 32000 ft 446 kts 146°
2026-04-20 14:03 -1.11688 105.43053 32000 ft 446 kts 146°
2026-04-20 14:04 -1.32303 105.57007 32000 ft 445 kts 146°
2026-04-20 14:04 -1.52716 105.70827 32000 ft 445 kts 146°
2026-04-20 14:05 -1.73310 105.84773 32000 ft 445 kts 146°
2026-04-20 14:05 -1.93734 105.98606 32000 ft 445 kts 146°
2026-04-20 14:06 -2.14307 106.12489 31997 ft 445 kts 149°
2026-04-20 14:06 -2.26179 106.15861 32006 ft 445 kts 171°
2026-04-20 14:06 -2.38246 106.17900 32000 ft 445 kts 170°
2026-04-20 14:07 -2.62725 106.22073 32000 ft 445 kts 170°
2026-04-20 14:07 -2.87077 106.26235 32000 ft 445 kts 170°
2026-04-20 14:08 -3.11536 106.30423 32000 ft 445 kts 170°
2026-04-20 14:08 -3.35984 106.34611 32000 ft 445 kts 170°
2026-04-20 14:09 -3.60257 106.38772 32000 ft 445 kts 170°
2026-04-20 14:09 -3.83695 106.43111 32000 ft 444 kts 169°
2026-04-20 14:10 -4.08514 106.47767 32000 ft 444 kts 169°
2026-04-20 14:10 -4.32723 106.52303 32000 ft 444 kts 169°
2026-04-20 14:11 -4.57075 106.56866 32000 ft 444 kts 169°
2026-04-20 14:11 -4.81261 106.61499 31987 ft 444 kts 161°
2026-04-20 14:12 -4.87944 106.71160 32017 ft 444 kts 95°
2026-04-20 14:12 -4.88969 106.83356 31998 ft 444 kts 95°
2026-04-20 14:12 -4.91249 107.08044 32000 ft 444 kts 95°
2026-04-20 14:13 -4.93581 107.32717 32000 ft 444 kts 95°
2026-04-20 14:13 -4.95541 107.53227 32000 ft 444 kts 95°
2026-04-20 14:14 -4.97905 107.77944 32000 ft 444 kts 95°
2026-04-20 14:14 -5.00642 108.06639 32000 ft 444 kts 95°
2026-04-20 14:15 -5.02973 108.31159 32000 ft 443 kts 95°
2026-04-20 14:15 -5.05311 108.55846 32000 ft 443 kts 95°
2026-04-20 14:16 -5.07643 108.80520 32000 ft 443 kts 95°
2026-04-20 14:16 -5.09578 109.01054 32000 ft 443 kts 95°
2026-04-20 14:17 -5.15267 109.11081 32005 ft 443 kts 154°
2026-04-20 14:17 -5.26760 109.09467 32003 ft 443 kts 223°
2026-04-20 14:17 -5.31517 108.98249 32011 ft 443 kts 253°
2026-04-20 14:18 -5.39438 108.74784 32000 ft 443 kts 251°
2026-04-20 14:18 -5.47318 108.51317 32000 ft 443 kts 251°
2026-04-20 14:19 -5.55271 108.28028 31986 ft 443 kts 240°
2026-04-20 14:19 -5.64653 108.20223 32010 ft 443 kts 213°
2026-04-20 14:19 -5.74999 108.13417 32000 ft 443 kts 213°
2026-04-20 14:20 -5.94809 107.98968 31426 ft 426 kts 236°
2026-04-20 14:20 -5.96064 107.87704 29286 ft 411 kts 272°
2026-04-20 14:20 -5.95862 107.76369 27211 ft 398 kts 270°
2026-04-20 14:21 -5.95994 107.65367 25219 ft 386 kts 268°
2026-04-20 14:21 -5.96142 107.54765 23284 ft 375 kts 269°
2026-04-20 14:21 -5.96170 107.44394 21420 ft 364 kts 270°
2026-04-20 14:21 -5.96172 107.34457 19624 ft 354 kts 270°
2026-04-20 14:22 -5.96160 107.24653 17712 ft 346 kts 270°
2026-04-20 14:22 -5.96143 107.15229 15934 ft 335 kts 270°
2026-04-20 14:22 -5.94954 107.06173 14157 ft 326 kts 292°
2026-04-20 14:22 -5.95366 107.00467 13256 ft 322 kts 236°
2026-04-20 14:23 -5.95958 106.99730 13075 ft 321 kts 227°
2026-04-20 14:23 -5.97461 106.98078 12650 ft 319 kts 236°
2026-04-20 14:23 -5.98345 106.96081 12232 ft 317 kts 255°
2026-04-20 14:23 -5.98449 106.93863 11797 ft 315 kts 278°
2026-04-20 14:24 -5.98028 106.91743 11388 ft 313 kts 281°
2026-04-20 14:24 -5.97618 106.89600 10962 ft 311 kts 280°
2026-04-20 14:24 -5.97257 106.87469 10534 ft 306 kts 279°
2026-04-20 14:24 -5.96663 106.83592 9741 ft 298 kts 278°
2026-04-20 14:25 -5.96157 106.79505 8876 ft 291 kts 269°
2026-04-20 14:25 -5.97268 106.75684 8036 ft 285 kts 245°
2026-04-20 14:25 -5.98816 106.72040 7183 ft 280 kts 248°
2026-04-20 14:25 -6.00253 106.68480 6341 ft 276 kts 248°
2026-04-20 14:26 -6.01686 106.64936 5492 ft 272 kts 248°
2026-04-20 14:26 -6.03114 106.61414 4637 ft 269 kts 248°
2026-04-20 14:26 -6.04513 106.57959 3787 ft 266 kts 248°
2026-04-20 14:26 -6.05900 106.54527 3052 ft 258 kts 248°
2026-04-20 14:27 -6.07207 106.51294 2997 ft 250 kts 248°
2026-04-20 14:27 -6.08503 106.48085 3000 ft 249 kts 248°
2026-04-20 14:27 -6.09739 106.45026 2998 ft 221 kts 248°
2026-04-20 14:27 -6.10723 106.42592 2979 ft 172 kts 248°
2026-04-20 14:28 -6.11144 106.41548 2934 ft 154 kts 248°
2026-04-20 14:28 -6.11540 106.40568 2717 ft 153 kts 247°
2026-04-20 14:28 -6.12213 106.39782 2424 ft 152 kts 205°
2026-04-20 14:28 -6.13231 106.39817 2165 ft 151 kts 161°
2026-04-20 14:29 -6.14216 106.40162 1924 ft 150 kts 167°
2026-04-20 14:29 -6.15249 106.40313 1702 ft 149 kts 173°
2026-04-20 14:29 -6.16277 106.40462 1718 ft 158 kts 170°
2026-04-20 14:29 -6.17391 106.40679 1707 ft 164 kts 169°
2026-04-20 14:30 -6.18399 106.41183 1667 ft 165 kts 133°
2026-04-20 14:30 -6.18567 106.43205 1771 ft 164 kts 88°
2026-04-20 14:30 -6.18775 106.45490 1701 ft 164 kts 96°
2026-04-20 14:30 -6.18502 106.47704 1700 ft 164 kts 69°
2026-04-20 14:31 -6.17727 106.49865 1704 ft 164 kts 69°
2026-04-20 14:31 -6.17279 106.51019 1700 ft 164 kts 68°
2026-04-20 14:31 -6.16857 106.52085 1700 ft 164 kts 68°
2026-04-20 14:31 -6.16432 106.53149 1700 ft 164 kts 68°
2026-04-20 14:32 -6.16005 106.54214 1700 ft 164 kts 68°
2026-04-20 14:32 -6.15580 106.55269 1700 ft 164 kts 68°
2026-04-20 14:32 -6.15151 106.56337 1648 ft 164 kts 68°
2026-04-20 14:32 -6.14724 106.57400 1421 ft 164 kts 68°
2026-04-20 14:33 -6.14297 106.58461 1202 ft 163 kts 68°
2026-04-20 14:33 -6.13869 106.59524 983 ft 163 kts 68°
2026-04-20 14:33 -6.13442 106.60584 765 ft 162 kts 68°
2026-04-20 14:33 -6.13026 106.61619 553 ft 162 kts 68°
2026-04-20 14:34 -6.12604 106.62668 338 ft 161 kts 68°
2026-04-20 14:34 -6.12183 106.63714 125 ft 161 kts 68°
2026-04-20 14:34 -6.11794 106.64681 49 ft 117 kts 68°
2026-04-20 14:34 -6.11599 106.65164 49 ft 53 kts 68°
2026-04-20 14:35 -6.11488 106.65442 49 ft 25 kts 68°
2026-04-20 14:35 -6.11466 106.65551 49 ft 8 kts 129°
2026-04-20 14:35 -6.11491 106.65562 49 ft 0 kts 180°